Location: Gro�sch�nbrunn
(49.5760°N, 11.8868°E)
Time: 11:31:13
(UTC+00:00)

Cosmos 1464 Rocket - Pass Details

Date: 18 September 2020
Orbit: 953 x 1000 km, 82.9° (Epoch: 23 October)

Event Time Altitude Azimuth Distance (km) Brightness Sun altitude
Rises 17:58:12 0° 161° (SSE) 3,617 6.7 -7.2°
Reaches altitude 10° 18:00:50 10° 153° (SSE) 2,677 6.0 -7.6°
Maximum altitude 18:06:24 38° 88° (E) 1,419 4.4 -8.5°
Drops below altitude 10° 18:12:02 10° 22° (NNE) 2,709 6.2 -9.4°
Sets 18:14:42 0° 15° (NNE) 3,666 7.0 -9.8°
